Time_in_sec,gx,gy,gz
1326899765.81750941,0.00669345,0.00733859,-0.99995067
1326899765.86949968,0.00669045,0.00768754,-0.99994807
1326899765.92150283,0.00671723,0.00734162,-0.99995049
1326899765.96954703,0.00677201,0.00750129,-0.99994893
1326899766.02063870,0.00670781,0.00754925,-0.99994901
1326899766.06948972,0.00659738,0.00741613,-0.99995074
1326899766.11726737,0.00649129,0.00767744,-0.99994946
1326899766.16950488,0.00705241,0.00765303,-0.99994585
1326899766.21725798,0.00689446,0.00765048,-0.99994697
1326899766.26855469,0.00697765,0.00747460,-0.99994772
1326899766.31760669,0.00705349,0.00772804,-0.99994526
1326899766.36850357,0.00710873,0.00773728,-0.99994480
1326899766.42053437,0.00717250,0.00723637,-0.99994809
1326899766.46951222,0.00711392,0.00739762,-0.99994733
1326899766.51710749,0.00715615,0.00728905,-0.99994783
1326899766.56961298,0.00713426,0.00744178,-0.99994686
1326899766.61713696,0.00699244,0.00742405,-0.99994799
1326899766.66864443,0.00708031,0.00710063,-0.99994972
1326899766.71751642,0.00711243,0.00730153,-0.99994805
1326899766.76921487,0.00712414,0.00736939,-0.99994747
1326899766.81804609,0.00701915,0.00728208,-0.99994885
1326899766.86952138,0.00710516,0.00723904,-0.99994856
1326899766.91700292,0.00697318,0.00722665,-0.99994957
1326899766.96951509,0.00689815,0.00731148,-0.99994948
1326899767.02094364,0.00692286,0.00764749,-0.99994679
1326899767.06864548,0.00672998,0.00773844,-0.99994741
1326899767.11752081,0.00691170,0.00767187,-0.99994668
1326899767.16860294,0.00680924,0.00771126,-0.99994708
1326899767.21764874,0.00683686,0.00776826,-0.99994645
1326899767.26951337,0.00688154,0.00806510,-0.99994380
1326899767.31770754,0.00680012,0.00800611,-0.99994483
1326899767.36950159,0.00681236,0.00793660,-0.99994530
1326899767.41764212,0.00674461,0.00778896,-0.99994692
1326899767.46864629,0.00672964,0.00790673,-0.99994610
1326899767.51754594,0.00674179,0.00769987,-0.99994763
1326899767.56966138,0.00678044,0.00779609,-0.99994662
1326899767.61774492,0.00661377,0.00777158,-0.99994793
1326899767.66954708,0.00689536,0.00791555,-0.99994490
1326899767.71768332,0.00691846,0.00799655,-0.99994409
1326899767.76950979,0.00684865,0.00781980,-0.99994597
1326899767.81674838,0.00669631,0.00793924,-0.99994606
1326899767.86854649,0.00683495,0.00797275,-0.99994486
1326899767.91752219,0.00687450,0.00829463,-0.99994197
1326899767.96916270,0.00682329,0.00839927,-0.99994145
1326899768.01893258,0.00676617,0.00853220,-0.99994071
1326899768.07254100,0.00648462,0.00879925,-0.99994026
1326899768.11903286,0.00656551,0.00854690,-0.99994192
1326899768.16874170,0.00586403,0.00862902,-0.99994558
1326899768.22063994,0.00590096,0.00882337,-0.99994366
1326899768.26895285,0.00585314,0.00883634,-0.99994383
1326899768.31761551,0.00596265,0.00903777,-0.99994138
1326899768.36868834,0.00589099,0.00900043,-0.99994214
1326899768.41754460,0.00587138,0.00927231,-0.99993977
1326899768.46906352,0.00606990,0.00937810,-0.99993760
1326899768.51812935,0.00612195,0.00950727,-0.99993606
1326899768.56914043,0.00590414,0.00958071,-0.99993667
1326899768.62144613,0.00587567,0.00943018,-0.99993827
1326899768.66935849,0.00612438,0.00958468,-0.99993531
1326899768.71752381,0.00601480,0.00955610,-0.99993625
1326899768.76971745,0.00614097,0.00962211,-0.99993485
1326899768.82154655,0.00623739,0.00967716,-0.99993372
1326899768.86932898,0.00621096,0.00974488,-0.99993323
1326899768.92152858,0.00634739,0.00973395,-0.99993248
1326899768.96951079,0.00605747,0.00962382,-0.99993534
1326899769.02062130,0.00620145,0.00966809,-0.99993403
1326899769.06851506,0.00624772,0.00979918,-0.99993247
1326899769.11750460,0.00630985,0.00987360,-0.99993135
1326899769.16857409,0.00669899,0.00966512,-0.99993085
1326899769.21737552,0.00667076,0.00973057,-0.99993041
1326899769.26955128,0.00667382,0.00992473,-0.99992848
1326899769.31775308,0.00650892,0.01015728,-0.99992723
1326899769.36949944,0.00646287,0.00997417,-0.99992937
1326899769.41754079,0.00657817,0.00941576,-0.99993403
1326899769.46953917,0.00629949,0.00934705,-0.99993647
1326899769.51750278,0.00604999,0.00949212,-0.99993665
1326899769.56954074,0.00594081,0.00973361,-0.99993498
1326899769.62152314,0.00575322,0.00969803,-0.99993642
1326899769.66901445,0.00549670,0.00926996,-0.99994193
1326899769.71764970,0.00518671,0.00929258,-0.99994337
1326899769.76949859,0.00509276,0.00929628,-0.99994382
1326899769.81710863,0.00531576,0.00943654,-0.99994135
1326899769.86966062,0.00531719,0.00978088,-0.99993803
1326899769.91752887,0.00534441,0.00938815,-0.99994165
1326899769.96965694,0.00523994,0.00947252,-0.99994141
1326899770.02063608,0.00519865,0.00964247,-0.99994000
1326899770.06953406,0.00517908,0.00955939,-0.99994090
1326899770.11764169,0.00509044,0.00964374,-0.99994054
1326899770.16954470,0.00493225,0.00932596,-0.99994435
1326899770.21689057,0.00494569,0.00936947,-0.99994387
1326899770.26888490,0.00504635,0.00935666,-0.99994349
1326899770.32057095,0.00510588,0.00930477,-0.99994367
1326899770.36885691,0.00527772,0.00934242,-0.99994243
1326899770.41766095,0.00501012,0.00852022,-0.99995115
1326899770.46952415,0.00488726,0.00855434,-0.99995147
1326899770.52083158,0.00487851,0.00877633,-0.99994959
1326899770.56958246,0.00481267,0.00891479,-0.99994868
1326899770.61752963,0.00483983,0.00894303,-0.99994830
1326899770.66964293,0.00498740,0.00892884,-0.99994770
1326899770.71669841,0.00501098,0.00912054,-0.99994585
1326899770.76855326,0.00488949,0.00924334,-0.99994533
1326899770.81766534,0.00471401,0.00951271,-0.99994364
1326899770.86969876,0.00458651,0.00962740,-0.99994314
1326899770.92061281,0.00418241,0.00827462,-0.99995702
1326899770.96950197,0.00394918,0.00841886,-0.99995676
1326899771.02063847,0.00389299,0.00840786,-0.99995708
1326899771.07249022,0.00384315,0.00850739,-0.99995643
1326899771.11754346,0.00358511,0.00870682,-0.99995567
1326899771.16956449,0.00345904,0.00742403,-0.99996646
1326899771.22064209,0.00348114,0.00750247,-0.99996580
1326899771.26948571,0.00342660,0.00773203,-0.99996424
1326899771.31807756,0.00357178,0.00764066,-0.99996443
1326899771.36950779,0.00347186,0.00759594,-0.99996512
1326899771.41756749,0.00348385,0.00787894,-0.99996289
1326899771.46854115,0.00341950,0.00743740,-0.99996650
1326899771.51751900,0.00332035,0.00747144,-0.99996658
1326899771.56946278,0.00320868,0.00747798,-0.99996689
1326899771.62056780,0.00326491,0.00779995,-0.99996425
1326899771.66865015,0.00318477,0.00813771,-0.99996182
1326899771.71756053,0.00349146,0.00811494,-0.99996098
1326899771.76948547,0.00353026,0.00797086,-0.99996200
1326899771.81732678,0.00357003,0.00813803,-0.99996051
1326899771.86854649,0.00346764,0.00836762,-0.99995898
1326899771.91751814,0.00328150,0.00860451,-0.99995760
1326899771.96864009,0.00331115,0.00893858,-0.99995457
1326899772.01752019,0.00328047,0.00914461,-0.99995281
1326899772.06923580,0.00315631,0.00934363,-0.99995137
1326899772.11751580,0.00310543,0.00958262,-0.99994926
1326899772.16950440,0.00350751,0.00953619,-0.99994838
1326899772.21712136,0.00357845,0.00969254,-0.99994662
1326899772.26854515,0.00347614,0.00970423,-0.99994687
1326899772.31759620,0.00344468,0.00969681,-0.99994705
1326899772.36849809,0.00340785,0.00992940,-0.99994490
1326899772.41766238,0.00314188,0.01025244,-0.99994251
1326899772.46958995,0.00333462,0.01012508,-0.99994318
1326899772.51766276,0.00353657,0.01020588,-0.99994166
1326899772.56950521,0.00314924,0.01052096,-0.99993969
1326899772.62065744,0.00300794,0.01047936,-0.99994057
1326899772.66852188,0.00290341,0.01031800,-0.99994255
1326899772.71752095,0.00295442,0.01048690,-0.99994065
1326899772.76865411,0.00279507,0.01069458,-0.99993890
1326899772.82085919,0.00268835,0.01088206,-0.99993717
1326899772.86866403,0.00283840,0.01099476,-0.99993553
1326899772.92066455,0.00284433,0.01132151,-0.99993186
1326899772.96950912,0.00318305,0.01090347,-0.99993549
1326899773.02063107,0.00312756,0.01101354,-0.99993446
1326899773.06863070,0.00319293,0.01123810,-0.99993175
1326899773.11752486,0.00328686,0.01132038,-0.99993052
1326899773.16950488,0.00352444,0.01161572,-0.99992632
1326899773.21700454,0.00364560,0.01156487,-0.99992648
1326899773.26951647,0.00369107,0.01165770,-0.99992523
1326899773.31774306,0.00371531,0.01178803,-0.99992362
1326899773.36886811,0.00355085,0.01162332,-0.99992614
1326899773.41686368,0.00369143,0.01204760,-0.99992061
1326899773.46954465,0.00362172,0.01079632,-0.99993516
1326899773.51752663,0.00373480,0.01118018,-0.99993053
1326899773.56965280,0.00398640,0.01126548,-0.99992860
1326899773.62553453,0.00383707,0.01144719,-0.99992712
1326899773.66872120,0.00379743,0.01077239,-0.99993477
1326899773.72066522,0.00382446,0.01069972,-0.99993544
1326899773.76951742,0.00360897,0.01089168,-0.99993417
1326899773.81666112,0.00321800,0.01091309,-0.99993527
1326899773.86956549,0.00316559,0.01108785,-0.99993352
1326899773.92331052,0.00311470,0.01113756,-0.99993312
1326899773.96771812,0.00279612,0.01012430,-0.99994484
1326899774.02063012,0.00283112,0.01029200,-0.99994303
1326899774.06956434,0.00300112,0.01013416,-0.99994414
1326899774.12062192,0.00311475,0.01025596,-0.99994256
1326899774.16948771,0.00317487,0.01068025,-0.99993792
1326899774.22147441,0.00320639,0.00927191,-0.99995187
1326899774.26857686,0.00321023,0.00942588,-0.99995042
1326899774.31758189,0.00311229,0.00939911,-0.99995098
1326899774.36954474,0.00318430,0.00937579,-0.99995098
1326899774.42056251,0.00312349,0.00823398,-0.99996122
1326899774.46952987,0.00304376,0.00830855,-0.99996085
1326899774.52055955,0.00298470,0.00861391,-0.99995845
1326899774.56960320,0.00286453,0.00857339,-0.99995914
1326899774.61744928,0.00299406,0.00891739,-0.99995576
1326899774.66864181,0.00309191,0.00771237,-0.99996548
1326899774.71759772,0.00356988,0.00772934,-0.99996376
1326899774.76956749,0.00373161,0.00778091,-0.99996277
1326899774.81744385,0.00367496,0.00808892,-0.99996053
1326899774.86954594,0.00371133,0.00818314,-0.99995963
1326899774.91743779,0.00362317,0.00785656,-0.99996257
1326899774.96954751,0.00345094,0.00807197,-0.99996147
1326899775.01722765,0.00336156,0.00809902,-0.99996155
1326899775.06855917,0.00337672,0.00797576,-0.99996249
1326899775.12053561,0.00353410,0.00811681,-0.99996081
1326899775.16944480,0.00338086,0.00751894,-0.99996602
1326899775.21754742,0.00322609,0.00788324,-0.99996372
1326899775.26968169,0.00319143,0.00813923,-0.99996178
1326899775.31765223,0.00320271,0.00812208,-0.99996189
1326899775.36948705,0.00320642,0.00791611,-0.99996353
1326899775.41715789,0.00331534,0.00721779,-0.99996846
1326899775.46953154,0.00316217,0.00725611,-0.99996867
1326899775.52159643,0.00306553,0.00750524,-0.99996714
1326899775.57170010,0.00297470,0.00773461,-0.99996566
1326899775.62152052,0.00276172,0.00798981,-0.99996427
1326899775.66906500,0.00353016,0.00774884,-0.99996375
1326899775.72164154,0.00362730,0.00783095,-0.99996276
1326899775.76950383,0.00364105,0.00803446,-0.99996109
1326899775.81766152,0.00371472,0.00818574,-0.99995960
1326899775.86965227,0.00373621,0.00844149,-0.99995739
1326899775.91757202,0.00410768,0.00757242,-0.99996289
1326899775.96857214,0.00388850,0.00750000,-0.99996431
1326899776.01690626,0.00388482,0.00766052,-0.99996311
1326899776.06978536,0.00358991,0.00793678,-0.99996206
1326899776.12159801,0.00367116,0.00791430,-0.99996194
1326899776.16952825,0.00422411,0.00876627,-0.99995265
1326899776.22159839,0.00431525,0.00868971,-0.99995293
1326899776.26957726,0.00455452,0.00878729,-0.99995102
1326899776.31765795,0.00464931,0.00905020,-0.99994824
1326899776.36956906,0.00463992,0.00915372,-0.99994734
1326899776.42069292,0.00490162,0.00932396,-0.99994452
1326899776.46957779,0.00492333,0.00958226,-0.99994197
1326899776.52058148,0.00500207,0.00953764,-0.99994200
1326899776.56953788,0.00495935,0.00984135,-0.99993927
1326899776.61763811,0.00472536,0.01004214,-0.99993841
1326899776.66965199,0.00485689,0.00982018,-0.99993999
1326899776.71756077,0.00489003,0.00996487,-0.99993839
1326899776.76867509,0.00482775,0.01004178,-0.99993793
1326899776.82590365,0.00484770,0.01024757,-0.99993574
1326899776.86953068,0.00483070,0.01030467,-0.99993524
1326899776.92153025,0.00455507,0.00945815,-0.99994490
1326899776.96949673,0.00455613,0.00966604,-0.99994290
1326899777.02067804,0.00471464,0.00961235,-0.99994269
1326899777.06948924,0.00438596,0.00964236,-0.99994389
1326899777.11757088,0.00446167,0.00958034,-0.99994415
1326899777.16948676,0.00394533,0.00946397,-0.99994743
1326899777.21753740,0.00404230,0.00952409,-0.99994647
1326899777.26950359,0.00397715,0.00968528,-0.99994519
1326899777.31756020,0.00376313,0.00984189,-0.99994449
1326899777.36951756,0.00390113,0.01007191,-0.99994167
1326899777.42053413,0.00354048,0.00959837,-0.99994767
1326899777.46953177,0.00338323,0.00959847,-0.99994821
1326899777.51754141,0.00340211,0.00979323,-0.99994626
1326899777.56956983,0.00348258,0.00980937,-0.99994582
1326899777.62052560,0.00321925,0.00970655,-0.99994771
1326899777.66935182,0.00345198,0.00942593,-0.99994962
1326899777.72056723,0.00345559,0.00953416,-0.99994858
1326899777.76950240,0.00344285,0.00968587,-0.99994716
1326899777.82163620,0.00337379,0.00959086,-0.99994832
1326899777.86956096,0.00324412,0.00985541,-0.99994617
1326899777.91751766,0.00321948,0.00931237,-0.99995146
1326899777.96938562,0.00341712,0.00940210,-0.99994996
1326899778.02575946,0.00352869,0.00937542,-0.99994982
1326899778.06949568,0.00366022,0.00959181,-0.99994730
1326899778.12055993,0.00355945,0.00972064,-0.99994642
1326899778.16950297,0.00401800,0.00954033,-0.99994642
1326899778.22054243,0.00372551,0.00958607,-0.99994711
1326899778.26957202,0.00369927,0.00965164,-0.99994658
1326899778.31782556,0.00365503,0.00977171,-0.99994558
1326899778.36969519,0.00372132,0.00978731,-0.99994518
1326899778.41761255,0.00330486,0.00919295,-0.99995228
1326899778.46909094,0.00326198,0.00935208,-0.99995095
1326899778.51769710,0.00345613,0.00943928,-0.99994948
1326899778.56951618,0.00336623,0.00962651,-0.99994800
1326899778.61725712,0.00341006,0.00963606,-0.99994776
1326899778.66865802,0.00297086,0.00812158,-0.99996261
1326899778.71774054,0.00301575,0.00809022,-0.99996273
1326899778.76857758,0.00287674,0.00795080,-0.99996425
1326899778.82553673,0.00297400,0.00803031,-0.99996333
1326899778.86876512,0.00315020,0.00800716,-0.99996298
1326899778.91755986,0.00314124,0.00610681,-0.99997642
1326899778.96949863,0.00299773,0.00598904,-0.99997757
1326899779.02097297,0.00280562,0.00602254,-0.99997793
1326899779.06918669,0.00283068,0.00594184,-0.99997834
1326899779.11749434,0.00284881,0.00592725,-0.99997838
1326899779.16883731,0.00269937,0.00557233,-0.99998083
1326899779.22952843,0.00271846,0.00577255,-0.99997964
1326899779.26883459,0.00259228,0.00595300,-0.99997892
1326899779.31761765,0.00246358,0.00578492,-0.99998023
1326899779.36950207,0.00258757,0.00589062,-0.99997930
1326899779.42957473,0.00301380,0.00534475,-0.99998118
1326899779.46881819,0.00293709,0.00559271,-0.99998005
1326899779.51752687,0.00271863,0.00585019,-0.99997919
1326899779.56867313,0.00276666,0.00572654,-0.99997978
1326899779.61752200,0.00263301,0.00572924,-0.99998012
1326899779.66866660,0.00249174,0.00542391,-0.99998219
1326899779.71750498,0.00251621,0.00545724,-0.99998194
1326899779.76954412,0.00271943,0.00560942,-0.99998057
1326899779.82067370,0.00263466,0.00555046,-0.99998113
1326899779.86856318,0.00244418,0.00563670,-0.99998113
1326899779.92153859,0.00285825,0.00571856,-0.99997956
1326899779.96852970,0.00299614,0.00622805,-0.99997612
1326899780.02154756,0.00287363,0.00645914,-0.99997501
1326899780.06956267,0.00301548,0.00671010,-0.99997294
1326899780.11774707,0.00290945,0.00692283,-0.99997180
1326899780.16948771,0.00282983,0.00625175,-0.99997645
1326899780.21750879,0.00293897,0.00640268,-0.99997518
1326899780.26863384,0.00297812,0.00645318,-0.99997474
1326899780.31765294,0.00274918,0.00652820,-0.99997491
1326899780.36951494,0.00277821,0.00656247,-0.99997461
1326899780.41751480,0.00296825,0.00570196,-0.99997934
1326899780.46941161,0.00313154,0.00565427,-0.99997911
1326899780.51755929,0.00311239,0.00576396,-0.99997854
1326899780.56950450,0.00325688,0.00559258,-0.99997906
1326899780.61740088,0.00329342,0.00557294,-0.99997905
1326899780.66957784,0.00266070,0.00397447,-0.99998856
1326899780.71752548,0.00253928,0.00403507,-0.99998864
1326899780.76857066,0.00245259,0.00398247,-0.99998906
1326899780.82167196,0.00234399,0.00402692,-0.99998914
1326899780.86952901,0.00243482,0.00419640,-0.99998823
1326899780.92051482,0.00253795,0.00354538,-0.99999049
1326899780.96953058,0.00236989,0.00364442,-0.99999055
1326899781.02053738,0.00228302,0.00366537,-0.99999068
1326899781.06956935,0.00232171,0.00388241,-0.99998977
1326899781.11751747,0.00225767,0.00390282,-0.99998984
1326899781.16865420,0.00266191,0.00241766,-0.99999353
1326899781.21722293,0.00260862,0.00240217,-0.99999371
1326899781.26955557,0.00281331,0.00259157,-0.99999268
1326899781.31767154,0.00296699,0.00263512,-0.99999213
1326899781.36948609,0.00300604,0.00278294,-0.99999161
1326899781.41713047,0.00313007,0.00327487,-0.99998974
1326899781.46862817,0.00297614,0.00358489,-0.99998915
1326899781.51751542,0.00315632,0.00362860,-0.99998844
1326899781.56866050,0.00310683,0.00361886,-0.99998863
1326899781.61764693,0.00337354,0.00357591,-0.99998792
1326899781.66951036,0.00442942,0.00434099,-0.99998077
1326899781.71699142,0.00434637,0.00428047,-0.99998139
1326899781.76950455,0.00427422,0.00412200,-0.99998237
1326899781.82097673,0.00430572,0.00417475,-0.99998202
1326899781.86897469,0.00405826,0.00411138,-0.99998331
1326899781.91752315,0.00427451,0.00485189,-0.99997909
1326899781.96948838,0.00423187,0.00483910,-0.99997934
1326899782.02050829,0.00450907,0.00499319,-0.99997737
1326899782.06882286,0.00478886,0.00513417,-0.99997535
1326899782.12054300,0.00466728,0.00522509,-0.99997546
1326899782.16954732,0.00530555,0.00546553,-0.99997099
1326899782.21681476,0.00532706,0.00556562,-0.99997032
1326899782.26872611,0.00555387,0.00566776,-0.99996851
1326899782.31760406,0.00532193,0.00569824,-0.99996960
1326899782.36879706,0.00529738,0.00572313,-0.99996959
1326899782.41666079,0.00629187,0.00567543,-0.99996410
1326899782.46953321,0.00623718,0.00567171,-0.99996446
1326899782.52051783,0.00620584,0.00571348,-0.99996442
1326899782.56948853,0.00606430,0.00558384,-0.99996602
1326899782.62063575,0.00614652,0.00548798,-0.99996605
1326899782.66879678,0.00659533,0.00587296,-0.99996100
1326899782.71750212,0.00674389,0.00582981,-0.99996027
1326899782.76872706,0.00702576,0.00605320,-0.99995700
1326899782.82164860,0.00687896,0.00604585,-0.99995806
1326899782.86959696,0.00692864,0.00606982,-0.99995757
1326899782.92063904,0.00609760,0.00614492,-0.99996253
1326899782.96951628,0.00610191,0.00606431,-0.99996299
1326899783.01756310,0.00597780,0.00617407,-0.99996307
1326899783.06850195,0.00604097,0.00624506,-0.99996225
1326899783.11753535,0.00610308,0.00645350,-0.99996055
1326899783.16853404,0.00524889,0.00690197,-0.99996241
1326899783.22155523,0.00506469,0.00722720,-0.99996106
1326899783.26854610,0.00501059,0.00735872,-0.99996037
1326899783.32064271,0.00530215,0.00726301,-0.99995957
1326899783.36974502,0.00532959,0.00711155,-0.99996051
1326899783.42056012,0.00395198,0.00694207,-0.99996809
1326899783.46856594,0.00403239,0.00699816,-0.99996738
1326899783.51752639,0.00387687,0.00734261,-0.99996553
1326899783.56857133,0.00388403,0.00726446,-0.99996607
1326899783.62554502,0.00364941,0.00729726,-0.99996672
1326899783.66950083,0.00308104,0.00695417,-0.99997107
1326899783.71750593,0.00297612,0.00711388,-0.99997027
